Satellite: FO-70
Catalog number: 37380
Epoch time:      12046.50349291
Element set:    0106
Inclination:      071.9705 deg
RA of node:       223.0530 deg
Eccentricity:    0.0018152
Arg of perigee:   191.1227 deg
Mean anomaly:     168.9536 deg
Mean motion:   14.76682035 rev/day
Decay rate:       3.31e-06 rev/day^2
Epoch rev:           01787
Checksum:              285

Satellite: ALMASAT-1
Catalog number: 38078
Epoch time:      12082.79039354
Element set:      54
Inclination:      069.4904 deg
RA of node:       152.5198 deg
Eccentricity:    0.0772678
Arg of perigee:   356.4992 deg
Mean anomaly:     003.0878 deg
Mean motion:   14.05809699 rev/day
Decay rate:     1.7029e-04 rev/day^2
Epoch rev:             539
Checksum:              348

Satellite: XATCOBEO
Catalog number: 38082
Epoch time:      12082.60459962
Element set:     105
Inclination:      069.4866 deg
RA of node:       152.6899 deg
Eccentricity:    0.0768425
Arg of perigee:   356.6634 deg
Mean anomaly:     002.9502 deg
Mean motion:   14.08364735 rev/day
Decay rate:     3.9992e-04 rev/day^2
Epoch rev:             536
Checksum:              337

/EX
SB KEPS @ AMSAT  $ORB12082.W
Orbital Elements  12082.WEATHER

HR AMSAT ORBITAL ELEMENTS FOR WEATHER SATELLITES
FROM WA5QGD FORT WORTH,TX March 22, 2012
Send SUBSCRIBE KEPS/UNSUBSCRIBE KEPS to majordomo at amsat.org only
BID: ORB12082.W
TO ALL RADIO AMATEURS BT

Satellite: NOAA-10
Catalog number: 16969
Epoch time:      12081.96812665
Element set:    0865
Inclination:      098.5929 deg
RA of node:       112.5383 deg
Eccentricity:    0.0013103
Arg of perigee:   128.0631 deg
Mean anomaly:     232.1734 deg
Mean motion:   14.27535687 rev/day
Decay rate:       1.08e-06 rev/day^2
Epoch rev:           32742
Checksum:              307

Satellite: NOAA-11
Catalog number: 19531
Epoch time:      12081.74379584
Element set:    0860
Inclination:      098.7338 deg
RA of node:       168.7361 deg
Eccentricity:    0.0011873
Arg of perigee:   111.6320 deg
Mean anomaly:     248.6121 deg
Mean motion:   14.14956562 rev/day
Decay rate:      -2.25e-06 rev/day^2
Epoch rev:           21214
Checksum:              295

Satellite: NOAA-12
Catalog number: 21263
Epoch time:      12081.94046719
Element set:    0357
Inclination:      098.7352 deg
RA of node:       103.9902 deg
Eccentricity:    0.0014781
Arg of perigee:   094.3816 deg
Mean anomaly:     265.9053 deg
Mean motion:   14.25484218 rev/day
Decay rate:        7.0e-07 rev/day^2
Epoch rev:           08412
Checksum:              296

Satellite: MET-3/5
Catalog number: 21655
Epoch time:      12082.84928366
Element set:     365
Inclination:      082.5576 deg
RA of node:       213.1667 deg
Eccentricity:    0.0013608
Arg of perigee:   173.0923 deg
Mean anomaly:     187.0392 deg
Mean motion:   13.17038728 rev/day
Decay rate:        5.1e-07 rev/day^2
Epoch rev:           99053
Checksum:              315

Satellite: MET-2/21
Catalog number: 22782
Epoch time:      12082.59926676
Element set:     370
Inclination:      082.5447 deg
RA of node:       101.2184 deg
Eccentricity:    0.0023605
Arg of perigee:   038.7226 deg
Mean anomaly:     321.5615 deg
Mean motion:   13.83677389 rev/day
Decay rate:        4.2e-07 rev/day^2
Epoch rev:           93719
Checksum:              314

Satellite: OKEAN-4
Catalog number: 23317
Epoch time:      12082.84386432
Element set:     837
Inclination:      082.5383 deg
RA of node:       111.9197 deg
Eccentricity:    0.0019693
Arg of perigee:   278.2135 deg
Mean anomaly:     081.6847 deg
Mean motion:   14.83643119 rev/day
Decay rate:       7.04e-06 rev/day^2
Epoch rev:           94200
Checksum:              313

Satellite: NOAA-14
Catalog number: 23455
Epoch time:      12081.93385693
Element set:    0842
Inclination:      098.8281 deg
RA of node:       166.5230 deg
Eccentricity:    0.0008997
Arg of perigee:   203.5603 deg
Mean anomaly:     156.5155 deg
Mean motion:   14.13884181 rev/day
Decay rate:        6.2e-07 rev/day^2
Epoch rev:           88846
Checksum:              327

Satellite: NOAA-15
Catalog number: 25338
Epoch time:      12081.71284845
Element set:    0197
Inclination:      098.6848 deg
RA of node:       069.4733 deg
Eccentricity:    0.0010765
Arg of perigee:   008.3498 deg
Mean anomaly:     351.7839 deg
Mean motion:   14.25043341 rev/day
Decay rate:       1.89e-06 rev/day^2
Epoch rev:           72039
Checksum:              333

Satellite: RESURS
Catalog number: 25394
Epoch time:      12081.93933809
Element set:    0054
Inclination:      098.3154 deg
RA of node:       074.7936 deg
Eccentricity:    0.0002166
Arg of perigee:   116.3202 deg
Mean anomaly:     243.8202 deg
Mean motion:   14.24279024 rev/day
Decay rate:       1.35e-06 rev/day^2
Epoch rev:           71198
Checksum:              284

Satellite: FENGYUN1
Catalog number: 25730
Epoch time:      12082.89259810
Element set:     564
Inclination:      098.8407 deg
RA of node:       043.4086 deg
Eccentricity:    0.0017901
Arg of perigee:   256.3864 deg
Mean anomaly:     103.5306 deg
Mean motion:   14.09332517 rev/day
Decay rate:       7.94e-06 rev/day^2
Epoch rev:           66245
Checksum:              306

Satellite: OKEAN-0
Catalog number: 25860
Epoch time:      12081.97238848
Element set:    0579
Inclination:      097.9256 deg
RA of node:       046.4541 deg
Eccentricity:    0.0001342
Arg of perigee:   101.9261 deg
Mean anomaly:     258.2097 deg
Mean motion:   14.74124355 rev/day
Decay rate:       5.50e-06 rev/day^2
Epoch rev:           68172
Checksum:              308

Satellite: NOAA-16
Catalog number: 26536
Epoch time:      12081.78213103
Element set:    0681
Inclination:      099.1057 deg
RA of node:       122.5140 deg
Eccentricity:    0.0010123
Arg of perigee:   333.4836 deg
Mean anomaly:     026.5793 deg
Mean motion:   14.12715670 rev/day
Decay rate:        1.0e-08 rev/day^2
Epoch rev:           59269
Checksum:              274

Satellite: NOAA-17
Catalog number: 27453
Epoch time:      12081.70949284
Element set:    0643
Inclination:      098.3458 deg
RA of node:       113.1316 deg
Eccentricity:    0.0012540
Arg of perigee:   056.5795 deg
Mean anomaly:     303.6579 deg
Mean motion:   14.24405920 rev/day
Decay rate:        3.7e-07 rev/day^2
Epoch rev:           50630
Checksum:              298

Satellite: NOAA-18
Catalog number: 28654
Epoch time:      12081.81403768
Element set:    0120
Inclination:      099.0368 deg
RA of node:       039.2188 deg
Eccentricity:    0.0014999
Arg of perigee:   043.0189 deg
Mean anomaly:     317.2170 deg
Mean motion:   14.11619763 rev/day
Decay rate:       -3.1e-07 rev/day^2
Epoch rev:           35223
Checksum:              300

Satellite: NOAA-19
Catalog number: 33591
Epoch time:      12081.80226645
Element set:    0310
Inclination:      098.8581 deg
RA of node:       022.7048 deg
Eccentricity:    0.0013251
Arg of perigee:   269.2664 deg
Mean anomaly:     090.6988 deg
Mean motion:   14.11310772 rev/day
Decay rate:       2.46e-06 rev/day^2
Epoch rev:           16068
Checksum:              299

/EX
SB KEPS @ AMSAT  $ORB12082.M
Orbital Elements  12082.MISC

HR AMSAT ORBITAL ELEMENTS FOR MANNED AND MISCELLANEOUS SATELLITES
FROM WA5QGD FORT WORTH,TX March 22, 2012
Send SUBSCRIBE KEPS/UNSUBSCRIBE KEPS to majordomo at amsat.org only
BID: ORB12082.M
TO ALL RADIO AMATEURS BT

Satellite: HUBBLE
Catalog number: 20580
Epoch time:      12082.17000933
Element set:     967
Inclination:      028.4714 deg
RA of node:       352.8983 deg
Eccentricity:    0.0003513
Arg of perigee:   209.0182 deg
Mean anomaly:     151.0101 deg
Mean motion:   15.02295563 rev/day
Decay rate:      1.521e-05 rev/day^2
Epoch rev:             163
Checksum:              245

Satellite: ISS
Catalog number: 25544
Epoch time:      12083.07342593
Element set:     231
Inclination:      051.6423 deg
RA of node:       193.7400 deg
Eccentricity:    0.0016398
Arg of perigee:   185.6950 deg
Mean anomaly:     169.9923 deg
Mean motion:   15.59465667 rev/day
Decay rate:     1.5714e-04 rev/day^2
Epoch rev:           76458
Checksum:              327

Satellite: CO-58
Catalog number: 28895
Epoch time:      12081.60019920
Element set:    0129
Inclination:      097.9286 deg
RA of node:       311.6656 deg
Eccentricity:    0.0018815
Arg of perigee:   067.9596 deg
Mean anomaly:     292.3586 deg
Mean motion:   14.60529270 rev/day
Decay rate:       5.12e-06 rev/day^2
Epoch rev:           34087
Checksum:              341

Satellite: FALCON
Catalog number: 30776
Epoch time:      12081.42065221
Element set:    0314
Inclination:      035.4322 deg
RA of node:       092.6491 deg
Eccentricity:    0.0002693
Arg of perigee:   317.0139 deg
Mean anomaly:     043.0368 deg
Mean motion:   15.06883758 rev/day
Decay rate:      2.980e-05 rev/day^2
Epoch rev:           27700
Checksum:              277

Satellite: MAST
Catalog number: 31126
Epoch time:      12081.97054500
Element set:    0424
Inclination:      097.8791 deg
RA of node:       098.1657 deg
Eccentricity:    0.0094608
Arg of perigee:   023.0598 deg
Mean anomaly:     337.4799 deg
Mean motion:   14.54074151 rev/day
Decay rate:       5.94e-06 rev/day^2
Epoch rev:           26159
Checksum:              320

Satellite: CAPE1
Catalog number: 31130
Epoch time:      12082.75906214
Element set:     425
Inclination:      097.8840 deg
RA of node:       095.3462 deg
Eccentricity:    0.0102353
Arg of perigee:   033.4856 deg
Mean anomaly:     327.2750 deg
Mean motion:   14.52822047 rev/day
Decay rate:       4.77e-06 rev/day^2
Epoch rev:           26122
Checksum:              276

